SHT21B EGJB-EGLL

Flight info

Callsign SHT21B
Flight time 0h 39m
Altitude 19000
Route ORIST L982 ROXOG
Aircraft A20N/M-SDE2E3FGHIRWXY/LB1

Departure

Time 2026-04-22 19:17
Airport Guernsey Airport (EGJB)

Arrival

Time 2026-04-22 19:56
Airport London Heathrow Airport (EGLL)
Time Latitude Longitude Altitude Speed Heading
2026-04-22 18:57 49.43252 -2.59621 340 ft 0 kts 178°
2026-04-22 19:08 49.43263 -2.59622 335 ft 2 kts 178°
2026-04-22 19:08 49.43279 -2.59623 336 ft 2 kts 180°
2026-04-22 19:08 49.43296 -2.59624 335 ft 2 kts 179°
2026-04-22 19:08 49.43312 -2.59625 335 ft 2 kts 179°
2026-04-22 19:09 49.43329 -2.59625 339 ft 2 kts 176°
2026-04-22 19:09 49.43345 -2.59624 336 ft 2 kts 194°
2026-04-22 19:09 49.43355 -2.59619 338 ft 2 kts 214°
2026-04-22 19:09 49.43363 -2.59591 335 ft 1 kts 266°
2026-04-22 19:12 49.43363 -2.59609 335 ft 5 kts 265°
2026-04-22 19:12 49.43357 -2.59711 339 ft 15 kts 261°
2026-04-22 19:12 49.43343 -2.59928 335 ft 25 kts 269°
2026-04-22 19:13 49.43337 -2.60158 330 ft 21 kts 268°
2026-04-22 19:13 49.43330 -2.60406 325 ft 26 kts 266°
2026-04-22 19:13 49.43333 -2.60670 323 ft 18 kts 282°
2026-04-22 19:13 49.43358 -2.60852 320 ft 20 kts 280°
2026-04-22 19:14 49.43364 -2.61070 316 ft 22 kts 269°
2026-04-22 19:14 49.43365 -2.61257 313 ft 18 kts 290°
2026-04-22 19:14 49.43448 -2.61358 312 ft 12 kts 356°
2026-04-22 19:14 49.43468 -2.61295 314 ft 6 kts 88°
2026-04-22 19:15 49.43468 -2.61285 314 ft 0 kts 88°
2026-04-22 19:15 49.43477 -2.60968 320 ft 72 kts 87°
2026-04-22 19:16 49.43513 -2.59806 372 ft 138 kts 88°
2026-04-22 19:16 49.43528 -2.58777 764 ft 146 kts 91°
2026-04-22 19:17 49.43528 -2.58273 1065 ft 145 kts 92°
2026-04-22 19:17 49.43524 -2.57258 1742 ft 143 kts 91°
2026-04-22 19:17 49.43564 -2.55783 2609 ft 152 kts 91°
2026-04-22 19:17 49.43621 -2.54066 3276 ft 175 kts 91°
2026-04-22 19:18 49.43664 -2.52744 3624 ft 200 kts 90°
2026-04-22 19:18 49.43928 -2.50396 3979 ft 247 kts 71°
2026-04-22 19:18 49.45531 -2.47376 4036 ft 298 kts 37°
2026-04-22 19:18 49.46790 -2.46516 4428 ft 301 kts 18°
2026-04-22 19:19 49.48842 -2.46074 5691 ft 292 kts
2026-04-22 19:19 49.50795 -2.45828 7201 ft 275 kts
2026-04-22 19:19 49.52709 -2.45456 8152 ft 281 kts 11°
2026-04-22 19:19 49.54640 -2.44900 9105 ft 284 kts 13°
2026-04-22 19:20 49.56575 -2.44225 10078 ft 287 kts 14°
2026-04-22 19:20 49.58535 -2.43485 10912 ft 292 kts 15°
2026-04-22 19:20 49.60525 -2.42716 11738 ft 297 kts 14°
2026-04-22 19:20 49.62547 -2.41931 12574 ft 302 kts 14°
2026-04-22 19:21 49.64604 -2.41136 13398 ft 307 kts 14°
2026-04-22 19:21 49.66694 -2.40331 14207 ft 312 kts 14°
2026-04-22 19:21 49.68744 -2.39476 14957 ft 314 kts 21°
2026-04-22 19:21 49.70668 -2.37861 15718 ft 317 kts 38°
2026-04-22 19:22 49.72228 -2.35440 16453 ft 321 kts 50°
2026-04-22 19:22 49.73685 -2.32758 16735 ft 341 kts 50°
2026-04-22 19:22 49.75261 -2.29872 16945 ft 361 kts 50°
2026-04-22 19:22 49.76921 -2.26842 17337 ft 374 kts 50°
2026-04-22 19:23 49.78609 -2.23766 18077 ft 377 kts 50°
2026-04-22 19:23 49.80313 -2.20660 18751 ft 380 kts 50°
2026-04-22 19:23 49.82035 -2.17517 19085 ft 383 kts 50°
2026-04-22 19:23 49.83759 -2.14367 19195 ft 383 kts 50°
2026-04-22 19:24 49.85482 -2.11214 19226 ft 383 kts 50°
2026-04-22 19:24 49.87203 -2.08062 19230 ft 383 kts 50°
2026-04-22 19:24 49.88918 -2.04918 19225 ft 382 kts 50°
2026-04-22 19:24 49.90635 -2.01765 19230 ft 382 kts 50°
2026-04-22 19:25 49.92251 -1.98794 19232 ft 382 kts 50°
2026-04-22 19:25 49.93958 -1.95654 19233 ft 382 kts 50°
2026-04-22 19:25 49.95671 -1.92497 19236 ft 383 kts 50°
2026-04-22 19:25 49.97383 -1.89335 19235 ft 382 kts 50°
2026-04-22 19:26 49.99188 -1.86296 19236 ft 382 kts 43°
2026-04-22 19:26 50.01264 -1.83728 19241 ft 382 kts 34°
2026-04-22 19:26 50.03568 -1.81672 19243 ft 382 kts 26°
2026-04-22 19:26 50.05752 -1.79969 19239 ft 381 kts 27°
2026-04-22 19:27 50.07933 -1.78245 19244 ft 380 kts 27°
2026-04-22 19:27 50.10294 -1.76368 19247 ft 381 kts 27°
2026-04-22 19:27 50.12526 -1.74341 19244 ft 382 kts 34°
2026-04-22 19:27 50.14623 -1.71807 19248 ft 381 kts 40°
2026-04-22 19:28 50.16657 -1.69147 19253 ft 381 kts 39°
2026-04-22 19:28 50.18694 -1.66510 19254 ft 380 kts 39°
2026-04-22 19:28 50.20733 -1.63875 19257 ft 380 kts 39°
2026-04-22 19:28 50.22768 -1.61240 19255 ft 381 kts 39°
2026-04-22 19:29 50.24824 -1.58642 19258 ft 379 kts 35°
2026-04-22 19:29 50.27063 -1.56472 19259 ft 379 kts 27°
2026-04-22 19:29 50.29486 -1.54842 19261 ft 379 kts 18°
2026-04-22 19:29 50.31989 -1.53626 19261 ft 377 kts 17°
2026-04-22 19:30 50.33644 -1.52822 19263 ft 378 kts 17°
2026-04-22 19:30 50.36903 -1.51220 19265 ft 378 kts 17°
2026-04-22 19:30 50.39418 -1.49981 19265 ft 378 kts 17°
2026-04-22 19:30 50.41927 -1.48745 19267 ft 378 kts 17°
2026-04-22 19:31 50.44440 -1.47507 19271 ft 378 kts 17°
2026-04-22 19:31 50.46946 -1.46273 19273 ft 378 kts 17°
2026-04-22 19:31 50.49458 -1.45035 19273 ft 378 kts 17°
2026-04-22 19:31 50.51974 -1.43794 19277 ft 378 kts 17°
2026-04-22 19:32 50.54421 -1.42301 19278 ft 377 kts 25°
2026-04-22 19:32 50.56600 -1.40486 19281 ft 377 kts 28°
2026-04-22 19:32 50.58511 -1.38834 19282 ft 379 kts 28°
2026-04-22 19:32 50.60828 -1.36847 19285 ft 378 kts 28°
2026-04-22 19:33 50.63028 -1.34963 19287 ft 378 kts 28°
2026-04-22 19:33 50.65304 -1.33009 19293 ft 378 kts 28°
2026-04-22 19:33 50.67618 -1.31020 19300 ft 379 kts 28°
2026-04-22 19:33 50.69700 -1.29227 19304 ft 379 kts 28°
2026-04-22 19:34 50.72016 -1.27229 19304 ft 378 kts 28°
2026-04-22 19:34 50.74314 -1.25244 19305 ft 370 kts 28°
2026-04-22 19:34 50.76501 -1.23310 19309 ft 352 kts 31°
2026-04-22 19:34 50.78503 -1.21242 19309 ft 335 kts 33°
2026-04-22 19:35 50.80408 -1.19273 19311 ft 319 kts 32°
2026-04-22 19:35 50.82234 -1.17395 19319 ft 318 kts 32°
2026-04-22 19:35 50.84110 -1.15466 19293 ft 325 kts 32°
2026-04-22 19:35 50.86004 -1.13515 19193 ft 323 kts 32°
2026-04-22 19:36 50.87722 -1.11741 18937 ft 323 kts 32°
2026-04-22 19:36 50.89597 -1.09803 18551 ft 321 kts 32°
2026-04-22 19:36 50.91466 -1.07869 18120 ft 320 kts 33°
2026-04-22 19:36 50.93289 -1.05982 17678 ft 318 kts 33°
2026-04-22 19:37 50.95136 -1.04069 17254 ft 316 kts 34°
2026-04-22 19:37 50.96971 -1.02164 16805 ft 315 kts 34°
2026-04-22 19:37 50.98770 -1.00297 16376 ft 314 kts 34°
2026-04-22 19:37 51.00535 -0.98232 16142 ft 304 kts 43°
2026-04-22 19:38 51.01972 -0.95925 16040 ft 291 kts 51°
2026-04-22 19:38 51.03187 -0.93732 15952 ft 280 kts 50°
2026-04-22 19:38 51.04513 -0.91378 15774 ft 271 kts 50°
2026-04-22 19:38 51.05767 -0.89154 15441 ft 270 kts 51°
2026-04-22 19:39 51.07020 -0.86932 15075 ft 269 kts 51°
2026-04-22 19:39 51.08059 -0.85086 14743 ft 267 kts 51°
2026-04-22 19:39 51.09296 -0.82885 14323 ft 266 kts 51°
2026-04-22 19:39 51.10528 -0.80687 13892 ft 265 kts 51°
2026-04-22 19:40 51.11749 -0.78505 13499 ft 262 kts 52°
2026-04-22 19:40 51.12949 -0.76357 13366 ft 261 kts 52°
2026-04-22 19:40 51.14124 -0.74249 13313 ft 262 kts 52°
2026-04-22 19:40 51.15329 -0.72089 13090 ft 260 kts 52°
2026-04-22 19:41 51.16530 -0.69935 12697 ft 259 kts 52°
2026-04-22 19:41 51.17725 -0.67791 12279 ft 258 kts 52°
2026-04-22 19:41 51.18915 -0.65653 11865 ft 257 kts 52°
2026-04-22 19:41 51.20075 -0.63568 11473 ft 255 kts 52°
2026-04-22 19:42 51.21235 -0.61479 11073 ft 254 kts 52°
2026-04-22 19:42 51.22400 -0.59382 10684 ft 252 kts 52°
2026-04-22 19:42 51.23558 -0.57293 10298 ft 251 kts 52°
2026-04-22 19:42 51.24711 -0.55213 9883 ft 249 kts 52°
2026-04-22 19:43 51.26984 -0.51108 9365 ft 247 kts 52°
2026-04-22 19:43 51.28126 -0.49038 9346 ft 248 kts 52°
2026-04-22 19:43 51.29266 -0.46974 9347 ft 248 kts 52°
2026-04-22 19:44 51.30428 -0.44932 9342 ft 250 kts 45°
2026-04-22 19:44 51.31909 -0.43662 9345 ft 258 kts 16°
2026-04-22 19:44 51.33454 -0.43569 9349 ft 265 kts 351°
2026-04-22 19:44 51.35153 -0.44733 9345 ft 269 kts 323°
2026-04-22 19:45 51.36337 -0.47018 9323 ft 268 kts 294°
2026-04-22 19:45 51.36751 -0.49875 9098 ft 263 kts 269°
2026-04-22 19:45 51.36731 -0.52797 8716 ft 262 kts 264°
2026-04-22 19:45 51.36644 -0.55712 8337 ft 261 kts 264°
2026-04-22 19:46 51.36582 -0.58605 7961 ft 260 kts 266°
2026-04-22 19:46 51.36558 -0.61457 7585 ft 258 kts 267°
2026-04-22 19:46 51.36561 -0.64312 7104 ft 256 kts 268°
2026-04-22 19:46 51.36577 -0.67154 6623 ft 254 kts 268°
2026-04-22 19:47 51.36596 -0.69936 6173 ft 251 kts 268°
2026-04-22 19:47 51.36584 -0.72731 5928 ft 256 kts 266°
2026-04-22 19:47 51.36550 -0.74653 5757 ft 255 kts 265°
2026-04-22 19:47 51.36483 -0.78313 5441 ft 251 kts 265°
2026-04-22 19:48 51.36427 -0.81120 5266 ft 253 kts 265°
2026-04-22 19:48 51.36379 -0.83930 5085 ft 252 kts 269°
2026-04-22 19:48 51.36814 -0.86516 4920 ft 246 kts 301°
2026-04-22 19:48 51.37970 -0.88435 4591 ft 239 kts 333°
2026-04-22 19:49 51.39535 -0.89171 4130 ft 235 kts
2026-04-22 19:49 51.41080 -0.88635 3758 ft 223 kts 33°
2026-04-22 19:49 51.42231 -0.87173 3454 ft 211 kts 58°
2026-04-22 19:49 51.43055 -0.85258 3193 ft 208 kts 66°
2026-04-22 19:50 51.43654 -0.83186 3047 ft 204 kts 71°
2026-04-22 19:50 51.44220 -0.81103 2821 ft 203 kts 71°
2026-04-22 19:50 51.44775 -0.79048 2565 ft 198 kts 70°
2026-04-22 19:50 51.45300 -0.77115 2501 ft 192 kts 70°
2026-04-22 19:51 51.45828 -0.75077 2491 ft 197 kts 73°
2026-04-22 19:51 51.46199 -0.73057 2468 ft 182 kts 81°
2026-04-22 19:51 51.46378 -0.71199 2365 ft 171 kts 89°
2026-04-22 19:51 51.46412 -0.69408 2267 ft 164 kts 90°
2026-04-22 19:52 51.46409 -0.67572 2083 ft 162 kts 91°
2026-04-22 19:52 51.46380 -0.65795 2042 ft 159 kts 91°
2026-04-22 19:52 51.46375 -0.64113 2136 ft 145 kts 90°
2026-04-22 19:52 51.46376 -0.62543 2031 ft 135 kts 90°
2026-04-22 19:53 51.46391 -0.61079 1745 ft 127 kts 89°
2026-04-22 19:53 51.46416 -0.59689 1475 ft 126 kts 89°
2026-04-22 19:53 51.46425 -0.58744 1306 ft 123 kts 88°
2026-04-22 19:53 51.46433 -0.56926 1187 ft 123 kts 89°
2026-04-22 19:54 51.46447 -0.55601 1067 ft 124 kts 88°
2026-04-22 19:54 51.46455 -0.54222 816 ft 132 kts 87°
2026-04-22 19:54 51.46466 -0.52719 654 ft 128 kts 88°
2026-04-22 19:54 51.46467 -0.51277 485 ft 131 kts 89°
2026-04-22 19:55 51.46476 -0.49805 292 ft 133 kts 87°
2026-04-22 19:55 51.46484 -0.48382 117 ft 124 kts 89°
2026-04-22 19:55 51.46481 -0.47309 86 ft 109 kts 90°
2026-04-22 19:55 51.46486 -0.46397 90 ft 55 kts 89°
2026-04-22 19:56 51.46499 -0.45969 83 ft 17 kts 80°
2026-04-22 19:56 51.46520 -0.45841 82 ft 18 kts 70°
2026-04-22 19:56 51.46538 -0.45779 84 ft 0 kts 61°
2026-04-22 19:57 51.46564 -0.45695 83 ft 15 kts 64°
2026-04-22 19:57 51.46654 -0.45684 81 ft 17 kts 305°
2026-04-22 19:57 51.46661 -0.45912 81 ft 24 kts 271°
2026-04-22 19:57 51.46660 -0.46181 84 ft 23 kts 268°
2026-04-22 19:58 51.46662 -0.46428 88 ft 23 kts 272°
2026-04-22 19:58 51.46659 -0.46680 92 ft 24 kts 268°
2026-04-22 19:58 51.46659 -0.46913 91 ft 22 kts 270°
2026-04-22 19:58 51.46657 -0.47169 86 ft 21 kts 269°
2026-04-22 19:59 51.46658 -0.47427 84 ft 23 kts 268°
2026-04-22 20:00 51.46796 -0.48467 87 ft 17 kts
2026-04-22 20:00 51.46877 -0.48536 89 ft 10 kts 279°
2026-04-22 20:01 51.46914 -0.48573 86 ft 6 kts 355°
2026-04-22 20:01 51.46926 -0.48573 86 ft 3 kts
2026-04-22 20:01 51.46927 -0.48573 86 ft 0 kts